Year,Month,Day,Hour,Minute,Value (Times are PST for temperature in C)
2014,08,10,00,00,19.30
2014,08,10,00,01,19.30
2014,08,10,00,02,19.30
2014,08,10,00,03,19.30
2014,08,10,00,04,19.20
2014,08,10,00,05,19.30
2014,08,10,00,06,19.40
2014,08,10,00,07,19.40
2014,08,10,00,08,19.50
2014,08,10,00,09,19.80
2014,08,10,00,10,20.00
2014,08,10,00,11,20.30
2014,08,10,00,12,20.60
2014,08,10,00,13,20.90
2014,08,10,00,14,21.20
2014,08,10,00,15,21.50
2014,08,10,00,16,21.70
2014,08,10,00,17,21.80
2014,08,10,00,18,22.00
2014,08,10,00,19,22.10
2014,08,10,00,20,22.20
2014,08,10,00,21,22.20
2014,08,10,00,22,22.30
2014,08,10,00,23,22.30
2014,08,10,00,24,22.30
2014,08,10,00,25,22.30
2014,08,10,00,26,22.30
2014,08,10,00,27,22.20
2014,08,10,00,28,22.20
2014,08,10,00,29,22.20
2014,08,10,00,30,22.20
2014,08,10,00,31,22.20
2014,08,10,00,32,22.10
2014,08,10,00,33,22.10
2014,08,10,00,34,22.10
2014,08,10,00,35,22.10
2014,08,10,00,36,22.00
2014,08,10,00,37,22.00
2014,08,10,00,38,22.00
2014,08,10,00,39,21.90
2014,08,10,00,40,21.90
2014,08,10,00,41,21.90
2014,08,10,00,42,21.80
2014,08,10,00,43,21.80
2014,08,10,00,44,21.80
2014,08,10,00,45,21.70
2014,08,10,00,46,21.70
2014,08,10,00,47,21.70
2014,08,10,00,48,21.60
2014,08,10,00,49,21.60
2014,08,10,00,50,21.60
2014,08,10,00,51,21.60
2014,08,10,00,52,21.50
2014,08,10,00,53,21.50
2014,08,10,00,54,21.50
2014,08,10,00,55,21.50
2014,08,10,00,56,21.40
2014,08,10,00,57,21.40
2014,08,10,00,58,21.40
2014,08,10,00,59,21.40
2014,08,10,01,00,21.40
2014,08,10,01,01,21.30
2014,08,10,01,02,21.30
2014,08,10,01,03,21.30
2014,08,10,01,04,21.30
2014,08,10,01,05,21.30
2014,08,10,01,06,21.30
2014,08,10,01,07,21.30
2014,08,10,01,08,21.30
2014,08,10,01,09,21.20
2014,08,10,01,10,21.20
2014,08,10,01,11,21.20
2014,08,10,01,12,21.20
2014,08,10,01,13,21.10
2014,08,10,01,14,21.10
2014,08,10,01,15,21.10
2014,08,10,01,16,21.10
2014,08,10,01,17,21.00
2014,08,10,01,18,21.00
2014,08,10,01,19,21.00
2014,08,10,01,20,21.00
2014,08,10,01,21,20.90
2014,08,10,01,22,20.90
2014,08,10,01,23,20.90
2014,08,10,01,24,20.90
2014,08,10,01,25,20.90
2014,08,10,01,26,20.90
2014,08,10,01,27,20.80
2014,08,10,01,28,20.80
2014,08,10,01,29,20.80
2014,08,10,01,30,20.80
2014,08,10,01,31,20.80
2014,08,10,01,32,20.90
2014,08,10,01,33,20.90
2014,08,10,01,34,20.90
2014,08,10,01,35,20.90
2014,08,10,01,36,20.90
2014,08,10,01,37,20.80
2014,08,10,01,38,20.80
2014,08,10,01,39,20.80
2014,08,10,01,40,20.80
2014,08,10,01,41,20.80
2014,08,10,01,42,20.80
2014,08,10,01,43,20.80
2014,08,10,01,44,20.80
2014,08,10,01,45,20.80
2014,08,10,01,46,20.80
2014,08,10,01,47,20.80
2014,08,10,01,48,20.70
2014,08,10,01,49,20.70
2014,08,10,01,50,20.70
2014,08,10,01,51,20.70
2014,08,10,01,52,20.70
2014,08,10,01,53,20.70
2014,08,10,01,54,20.80
2014,08,10,01,55,20.80
2014,08,10,01,56,20.80
2014,08,10,01,57,20.80
2014,08,10,01,58,20.80
2014,08,10,01,59,20.80
2014,08,10,02,00,20.80
2014,08,10,02,01,20.80
2014,08,10,02,02,20.80
2014,08,10,02,03,20.80
2014,08,10,02,04,20.80
2014,08,10,02,05,20.80
2014,08,10,02,06,20.80
2014,08,10,02,07,20.80
2014,08,10,02,08,20.80
2014,08,10,02,09,20.80
2014,08,10,02,10,20.70
2014,08,10,02,11,20.70
2014,08,10,02,12,20.70
2014,08,10,02,13,20.70
2014,08,10,02,14,20.70
2014,08,10,02,15,20.70
2014,08,10,02,16,20.70
2014,08,10,02,17,20.70
2014,08,10,02,18,20.70
2014,08,10,02,19,20.70
2014,08,10,02,20,20.70
2014,08,10,02,21,20.70
2014,08,10,02,22,20.70
2014,08,10,02,23,20.70
2014,08,10,02,24,20.70
2014,08,10,02,25,20.60
2014,08,10,02,26,20.60
2014,08,10,02,27,20.60
2014,08,10,02,28,20.60
2014,08,10,02,29,20.60
2014,08,10,02,30,20.60
2014,08,10,02,31,20.60
2014,08,10,02,32,20.60
2014,08,10,02,33,20.60
2014,08,10,02,34,20.60
2014,08,10,02,35,20.50
2014,08,10,02,36,20.50
2014,08,10,02,37,20.50
2014,08,10,02,38,20.60
2014,08,10,02,39,20.60
2014,08,10,02,40,20.60
2014,08,10,02,41,20.60
2014,08,10,02,42,20.60
2014,08,10,02,43,20.50
2014,08,10,02,44,20.50
2014,08,10,02,45,20.50
2014,08,10,02,46,20.40
2014,08,10,02,47,20.40
2014,08,10,02,48,20.40
2014,08,10,02,49,20.40
2014,08,10,02,50,20.40
2014,08,10,02,51,20.40
2014,08,10,02,52,20.40
2014,08,10,02,53,20.40
2014,08,10,02,54,20.40
2014,08,10,02,55,20.40
2014,08,10,02,56,20.40
2014,08,10,02,57,20.30
2014,08,10,02,58,20.30
2014,08,10,02,59,20.30
2014,08,10,03,00,20.30
2014,08,10,03,01,20.30
2014,08,10,03,02,20.30
2014,08,10,03,03,20.30
2014,08,10,03,04,20.30
2014,08,10,03,05,20.30
2014,08,10,03,06,20.30
2014,08,10,03,07,20.30
2014,08,10,03,08,20.30
2014,08,10,03,09,20.30
2014,08,10,03,10,20.30
2014,08,10,03,11,20.30
2014,08,10,03,12,20.40
2014,08,10,03,13,20.40
2014,08,10,03,14,20.40
2014,08,10,03,15,20.40
2014,08,10,03,16,20.40
2014,08,10,03,17,20.30
2014,08,10,03,18,20.30
2014,08,10,03,19,20.30
2014,08,10,03,20,20.30
2014,08,10,03,21,20.30
2014,08,10,03,22,20.30
2014,08,10,03,23,20.30
2014,08,10,03,24,20.20
2014,08,10,03,25,20.20
2014,08,10,03,26,20.20
2014,08,10,03,27,20.20
2014,08,10,03,28,20.20
2014,08,10,03,29,20.20
2014,08,10,03,30,20.10
2014,08,10,03,31,20.10
2014,08,10,03,32,20.10
2014,08,10,03,33,20.10
2014,08,10,03,34,20.10
2014,08,10,03,35,20.10
2014,08,10,03,36,20.10
2014,08,10,03,37,20.10
2014,08,10,03,38,20.00
2014,08,10,03,39,20.00
2014,08,10,03,40,20.00
2014,08,10,03,41,20.00
2014,08,10,03,42,20.00
2014,08,10,03,43,20.00
2014,08,10,03,44,19.90
2014,08,10,03,45,19.90
2014,08,10,03,46,19.90
2014,08,10,03,47,19.90
2014,08,10,03,48,19.90
2014,08,10,03,49,19.80
2014,08,10,03,50,19.80
2014,08,10,03,51,19.80
2014,08,10,03,52,19.80
2014,08,10,03,53,19.80
2014,08,10,03,54,19.80
2014,08,10,03,55,19.80
2014,08,10,03,56,19.80
2014,08,10,03,57,19.80
2014,08,10,03,58,19.80
2014,08,10,03,59,19.80
2014,08,10,04,00,19.80
2014,08,10,04,01,19.70
2014,08,10,04,02,19.70
2014,08,10,04,03,19.70
2014,08,10,04,04,19.70
2014,08,10,04,05,19.70
2014,08,10,04,06,19.70
2014,08,10,04,07,19.70
2014,08,10,04,08,19.70
2014,08,10,04,09,19.70
2014,08,10,04,10,19.60
2014,08,10,04,11,19.60
2014,08,10,04,12,19.60
2014,08,10,04,13,19.60
2014,08,10,04,14,19.60
2014,08,10,04,15,19.60
2014,08,10,04,16,19.60
2014,08,10,04,17,19.60
2014,08,10,04,18,19.60
2014,08,10,04,19,19.50
2014,08,10,04,20,19.50
2014,08,10,04,21,19.40
2014,08,10,04,22,19.40
2014,08,10,04,23,19.50
2014,08,10,04,24,19.50
2014,08,10,04,25,19.50
2014,08,10,04,26,19.40
2014,08,10,04,27,19.40
2014,08,10,04,28,19.40
2014,08,10,04,29,19.40
2014,08,10,04,30,19.40
2014,08,10,04,31,19.40
2014,08,10,04,32,19.40
2014,08,10,04,33,19.40
2014,08,10,04,34,19.40
2014,08,10,04,35,19.40
2014,08,10,04,36,19.40
2014,08,10,04,37,19.40
2014,08,10,04,38,19.40
2014,08,10,04,39,19.40
2014,08,10,04,40,19.40
2014,08,10,04,41,19.40
2014,08,10,04,42,19.40
2014,08,10,04,43,19.40
2014,08,10,04,44,19.40
2014,08,10,04,45,19.40
2014,08,10,04,46,19.40
2014,08,10,04,47,19.40
2014,08,10,04,48,19.40
2014,08,10,04,49,19.40
2014,08,10,04,50,19.40
2014,08,10,04,51,19.50
2014,08,10,04,52,19.50
2014,08,10,04,53,19.50
2014,08,10,04,54,19.50
2014,08,10,04,55,19.60
2014,08,10,04,56,19.60
2014,08,10,04,57,19.60
2014,08,10,04,58,19.60
2014,08,10,04,59,19.60
2014,08,10,05,00,19.60
2014,08,10,05,01,19.60
2014,08,10,05,02,19.60
2014,08,10,05,03,19.60
2014,08,10,05,04,19.60
2014,08,10,05,05,19.60
2014,08,10,05,06,19.60
2014,08,10,05,07,19.60
2014,08,10,05,08,19.50
2014,08,10,05,09,19.50
2014,08,10,05,10,19.60
2014,08,10,05,11,19.60
2014,08,10,05,12,19.60
2014,08,10,05,13,19.60
2014,08,10,05,14,19.60
2014,08,10,05,15,19.50
2014,08,10,05,16,19.50
2014,08,10,05,17,19.50
2014,08,10,05,18,19.50
2014,08,10,05,19,19.50
2014,08,10,05,20,19.50
2014,08,10,05,21,19.50
2014,08,10,05,22,19.40
2014,08,10,05,23,19.40
2014,08,10,05,24,19.40
2014,08,10,05,25,19.40
2014,08,10,05,26,19.40
2014,08,10,05,27,19.30
2014,08,10,05,28,19.30
2014,08,10,05,29,19.30
2014,08,10,05,30,19.30
2014,08,10,05,31,19.30
2014,08,10,05,32,19.30
2014,08,10,05,33,19.20
2014,08,10,05,34,19.20
2014,08,10,05,35,19.20
2014,08,10,05,36,19.20
2014,08,10,05,37,19.20
2014,08,10,05,38,19.20
2014,08,10,05,39,19.20
2014,08,10,05,40,19.20
2014,08,10,05,41,19.20
2014,08,10,05,42,19.20
2014,08,10,05,43,19.20
2014,08,10,05,44,19.10
2014,08,10,05,45,19.10
2014,08,10,05,46,19.10
2014,08,10,05,47,19.10
2014,08,10,05,48,19.10
2014,08,10,05,49,19.10
2014,08,10,05,50,19.10
2014,08,10,05,51,19.10
2014,08,10,05,52,19.10
2014,08,10,05,53,19.10
2014,08,10,05,54,19.00
2014,08,10,05,55,19.00
2014,08,10,05,56,19.00
2014,08,10,05,57,18.90
2014,08,10,05,58,18.90
2014,08,10,05,59,18.90
2014,08,10,06,00,18.90
2014,08,10,06,01,18.90
2014,08,10,06,02,18.80
2014,08,10,06,03,18.80
2014,08,10,06,04,18.80
2014,08,10,06,05,18.80
2014,08,10,06,06,18.80
2014,08,10,06,07,18.80
2014,08,10,06,08,18.80
2014,08,10,06,09,18.80
2014,08,10,06,10,18.80
2014,08,10,06,11,18.80
2014,08,10,06,12,18.80
2014,08,10,06,13,18.80
2014,08,10,06,14,18.80
2014,08,10,06,15,18.80
2014,08,10,06,16,18.80
2014,08,10,06,17,18.80
2014,08,10,06,18,18.80
2014,08,10,06,19,18.80
2014,08,10,06,20,18.80
2014,08,10,06,21,18.80
2014,08,10,06,22,18.80
2014,08,10,06,23,18.80
2014,08,10,06,24,18.80
2014,08,10,06,25,18.80
2014,08,10,06,26,18.80
2014,08,10,06,27,18.80
2014,08,10,06,28,18.80
2014,08,10,06,29,18.80
2014,08,10,06,30,18.80
2014,08,10,06,31,18.80
2014,08,10,06,32,18.80
2014,08,10,06,33,18.80
2014,08,10,06,34,18.80
2014,08,10,06,35,18.80
2014,08,10,06,36,18.80
2014,08,10,06,37,18.80
2014,08,10,06,38,18.80
2014,08,10,06,39,18.80
2014,08,10,06,40,18.80
2014,08,10,06,41,18.80
2014,08,10,06,42,18.80
2014,08,10,06,43,18.80
2014,08,10,06,44,18.80
2014,08,10,06,45,18.90
2014,08,10,06,46,18.90
2014,08,10,06,47,18.90
2014,08,10,06,48,18.90
2014,08,10,06,49,18.90
2014,08,10,06,50,18.90
2014,08,10,06,51,18.90
2014,08,10,06,52,18.90
2014,08,10,06,53,18.90
2014,08,10,06,54,18.90
2014,08,10,06,55,19.00
2014,08,10,06,56,19.00
2014,08,10,06,57,19.00
2014,08,10,06,58,19.10
2014,08,10,06,59,19.10
2014,08,10,07,00,19.10
2014,08,10,07,01,19.10
2014,08,10,07,02,19.10
2014,08,10,07,03,19.20
2014,08,10,07,04,19.20
2014,08,10,07,05,19.20
2014,08,10,07,06,19.20
2014,08,10,07,07,19.20
2014,08,10,07,08,19.30
2014,08,10,07,09,19.30
2014,08,10,07,10,19.30
2014,08,10,07,11,19.30
2014,08,10,07,12,19.30
2014,08,10,07,13,19.30
2014,08,10,07,14,19.40
2014,08,10,07,15,19.40
2014,08,10,07,16,19.50
2014,08,10,07,17,19.50
2014,08,10,07,18,19.50
2014,08,10,07,19,19.60
2014,08,10,07,20,19.60
2014,08,10,07,21,19.60
2014,08,10,07,22,19.60
2014,08,10,07,23,19.60
2014,08,10,07,24,19.60
2014,08,10,07,25,19.70
2014,08,10,07,26,19.70
2014,08,10,07,27,19.70
2014,08,10,07,28,19.70
2014,08,10,07,29,19.70
2014,08,10,07,30,19.70
2014,08,10,07,31,19.70
2014,08,10,07,32,19.80
2014,08,10,07,33,19.80
2014,08,10,07,34,19.80
2014,08,10,07,35,19.80
2014,08,10,07,36,19.90
2014,08,10,07,37,19.90
2014,08,10,07,38,19.90
2014,08,10,07,39,20.00
2014,08,10,07,40,20.00
2014,08,10,07,41,20.00
2014,08,10,07,42,20.00
2014,08,10,07,43,20.10
2014,08,10,07,44,20.10
2014,08,10,07,45,20.10
2014,08,10,07,46,20.10
2014,08,10,07,47,20.10
2014,08,10,07,48,20.10
2014,08,10,07,49,20.10
2014,08,10,07,50,20.10
2014,08,10,07,51,20.20
2014,08,10,07,52,20.20
2014,08,10,07,53,20.20
2014,08,10,07,54,20.20
2014,08,10,07,55,20.20
2014,08,10,07,56,20.30
2014,08,10,07,57,20.30
2014,08,10,07,58,20.30
2014,08,10,07,59,20.30
2014,08,10,08,00,20.30
2014,08,10,08,01,20.40
2014,08,10,08,02,20.40
2014,08,10,08,03,20.40
2014,08,10,08,04,20.40
2014,08,10,08,05,20.40
2014,08,10,08,06,20.50
2014,08,10,08,07,20.50
2014,08,10,08,08,20.60
2014,08,10,08,09,20.60
2014,08,10,08,10,20.70
2014,08,10,08,11,20.70
2014,08,10,08,12,20.70
2014,08,10,08,13,20.70
2014,08,10,08,14,20.80
2014,08,10,08,15,20.80
2014,08,10,08,16,20.80
2014,08,10,08,17,20.80
2014,08,10,08,18,20.80
2014,08,10,08,19,20.80
2014,08,10,08,20,20.80
2014,08,10,08,21,20.80
2014,08,10,08,22,20.80
2014,08,10,08,23,20.80
2014,08,10,08,24,20.80
2014,08,10,08,25,20.70
2014,08,10,08,26,20.70
2014,08,10,08,27,20.70
2014,08,10,08,28,20.60
2014,08,10,08,29,20.60
2014,08,10,08,30,20.60
2014,08,10,08,31,20.60
2014,08,10,08,32,20.60
2014,08,10,08,33,20.60
2014,08,10,08,34,20.60
2014,08,10,08,35,20.60
2014,08,10,08,36,20.60
2014,08,10,08,37,20.70
2014,08,10,08,38,20.70
2014,08,10,08,39,20.70
2014,08,10,08,40,20.70
2014,08,10,08,41,20.80
2014,08,10,08,42,20.80
2014,08,10,08,43,20.90
2014,08,10,08,44,20.90
2014,08,10,08,45,20.90
2014,08,10,08,46,20.90
2014,08,10,08,47,20.90
2014,08,10,08,48,20.90
2014,08,10,08,49,21.00
2014,08,10,08,50,21.00
2014,08,10,08,51,21.00
2014,08,10,08,52,21.10
2014,08,10,08,53,21.10
2014,08,10,08,54,21.10
2014,08,10,08,55,21.10
2014,08,10,08,56,21.10
2014,08,10,08,57,21.10
2014,08,10,08,58,21.10
2014,08,10,08,59,21.10
2014,08,10,09,00,21.10
2014,08,10,09,01,21.10
2014,08,10,09,02,21.10
2014,08,10,09,03,21.10
2014,08,10,09,04,21.20
2014,08,10,09,05,21.20
2014,08,10,09,06,21.20
2014,08,10,09,07,21.20
2014,08,10,09,08,21.20
2014,08,10,09,09,21.20
2014,08,10,09,10,21.20
2014,08,10,09,11,21.20
2014,08,10,09,12,21.20
2014,08,10,09,13,21.20
2014,08,10,09,14,21.30
2014,08,10,09,15,21.20
2014,08,10,09,16,21.20
2014,08,10,09,17,21.30
2014,08,10,09,18,21.30
2014,08,10,09,19,21.30
2014,08,10,09,20,21.30
2014,08,10,09,21,21.30
2014,08,10,09,22,21.40
2014,08,10,09,23,21.40
2014,08,10,09,24,21.50
2014,08,10,09,25,21.60
2014,08,10,09,26,21.60
2014,08,10,09,27,21.70
2014,08,10,09,28,21.70
2014,08,10,09,29,21.70
2014,08,10,09,30,21.80
2014,08,10,09,31,21.80
2014,08,10,09,32,21.80
2014,08,10,09,33,21.90
2014,08,10,09,34,22.00
2014,08,10,09,35,22.00
2014,08,10,09,36,22.10
2014,08,10,09,37,22.10
2014,08,10,09,38,22.10
2014,08,10,09,39,22.10
2014,08,10,09,40,22.10
2014,08,10,09,41,22.10
2014,08,10,09,42,22.20
2014,08,10,09,43,22.20
2014,08,10,09,44,22.20
2014,08,10,09,45,22.20
2014,08,10,09,46,22.20
2014,08,10,09,47,22.30
2014,08,10,09,48,22.30
2014,08,10,09,49,22.30
2014,08,10,09,50,22.30
2014,08,10,09,51,22.30
2014,08,10,09,52,22.40
2014,08,10,09,53,22.40
2014,08,10,09,54,22.40
2014,08,10,09,55,22.30
2014,08,10,09,56,22.30
2014,08,10,09,57,22.30
2014,08,10,09,58,22.30
2014,08,10,09,59,22.40
2014,08,10,10,00,22.40
2014,08,10,10,01,22.50
2014,08,10,10,02,22.50
2014,08,10,10,03,22.50
2014,08,10,10,04,22.50
2014,08,10,10,05,22.60
2014,08,10,10,06,22.60
2014,08,10,10,07,22.60
2014,08,10,10,08,22.60
2014,08,10,10,09,22.70
2014,08,10,10,10,22.70
2014,08,10,10,11,22.80
2014,08,10,10,12,22.80
2014,08,10,10,13,22.80
2014,08,10,10,14,22.80
2014,08,10,10,15,22.80
2014,08,10,10,16,22.70
2014,08,10,10,17,22.80
2014,08,10,10,18,22.80
2014,08,10,10,19,22.80
2014,08,10,10,20,22.80
2014,08,10,10,21,22.90
2014,08,10,10,22,23.10
2014,08,10,10,23,23.10
2014,08,10,10,24,23.20
2014,08,10,10,25,23.20
2014,08,10,10,26,23.30
2014,08,10,10,27,23.30
2014,08,10,10,28,23.30
2014,08,10,10,29,23.30
2014,08,10,10,30,23.30
2014,08,10,10,31,23.30
2014,08,10,10,32,23.40
2014,08,10,10,33,23.40
2014,08,10,10,34,23.40
2014,08,10,10,35,23.40
2014,08,10,10,36,23.40
2014,08,10,10,37,23.40
2014,08,10,10,38,23.40
2014,08,10,10,39,23.40
2014,08,10,10,40,23.40
2014,08,10,10,41,23.40
2014,08,10,10,42,23.40
2014,08,10,10,43,23.40
2014,08,10,10,44,23.30
2014,08,10,10,45,23.30
2014,08,10,10,46,23.40
2014,08,10,10,47,23.40
2014,08,10,10,48,23.40
2014,08,10,10,49,23.40
2014,08,10,10,50,23.40
2014,08,10,10,51,23.60
2014,08,10,10,52,23.70
2014,08,10,10,53,23.70
2014,08,10,10,54,23.70
2014,08,10,10,55,23.80
2014,08,10,10,56,23.70
2014,08,10,10,57,23.70
2014,08,10,10,58,23.60
2014,08,10,10,59,23.60
2014,08,10,11,00,23.60
2014,08,10,11,01,23.60
2014,08,10,11,02,23.50
2014,08,10,11,03,23.50
2014,08,10,11,04,23.50
2014,08,10,11,05,23.60
2014,08,10,11,06,23.60
2014,08,10,11,07,23.60
2014,08,10,11,08,23.60
2014,08,10,11,09,23.70
2014,08,10,11,10,23.60
2014,08,10,11,11,23.60
2014,08,10,11,12,23.50
2014,08,10,11,13,23.50
2014,08,10,11,14,23.50
2014,08,10,11,15,23.50
2014,08,10,11,16,23.50
2014,08,10,11,17,23.60
2014,08,10,11,18,23.60
2014,08,10,11,19,23.70
2014,08,10,11,20,23.70
2014,08,10,11,21,23.70
2014,08,10,11,22,23.70
2014,08,10,11,23,23.70
2014,08,10,11,24,23.80
2014,08,10,11,25,23.90
2014,08,10,11,26,24.00
2014,08,10,11,27,24.10
2014,08,10,11,28,24.10
2014,08,10,11,29,24.10
2014,08,10,11,30,24.00
2014,08,10,11,31,24.10
2014,08,10,11,32,24.10
2014,08,10,11,33,24.20
2014,08,10,11,34,24.30
2014,08,10,11,35,24.30
2014,08,10,11,36,24.30
2014,08,10,11,37,24.20
2014,08,10,11,38,24.10
2014,08,10,11,39,24.00
2014,08,10,11,40,24.00
2014,08,10,11,41,24.00
2014,08,10,11,42,23.90
2014,08,10,11,43,24.00
2014,08,10,11,44,24.00
2014,08,10,11,45,24.00
2014,08,10,11,46,24.10
2014,08,10,11,47,24.20
2014,08,10,11,48,24.30
2014,08,10,11,49,24.30
2014,08,10,11,50,24.30
2014,08,10,11,51,24.40
2014,08,10,11,52,24.40
2014,08,10,11,53,24.40
2014,08,10,11,54,24.50
2014,08,10,11,55,24.60
2014,08,10,11,56,24.50
2014,08,10,11,57,24.50
2014,08,10,11,58,24.40
2014,08,10,11,59,24.30
2014,08,10,12,00,24.20
2014,08,10,12,01,24.10
2014,08,10,12,02,24.10
2014,08,10,12,03,24.20
2014,08,10,12,04,24.20
2014,08,10,12,05,24.20
2014,08,10,12,06,24.20
2014,08,10,12,07,24.20
2014,08,10,12,08,24.20
2014,08,10,12,09,24.20
2014,08,10,12,10,24.20
2014,08,10,12,11,24.20
2014,08,10,12,12,24.10
2014,08,10,12,13,24.10
2014,08,10,12,14,24.00
2014,08,10,12,15,24.00
2014,08,10,12,16,23.90
2014,08,10,12,17,23.90
2014,08,10,12,18,23.90
2014,08,10,12,19,23.90
2014,08,10,12,20,23.90
2014,08,10,12,21,23.90
2014,08,10,12,22,24.00
2014,08,10,12,23,24.00
2014,08,10,12,24,24.10
2014,08,10,12,25,24.10
2014,08,10,12,26,24.20
2014,08,10,12,27,24.20
2014,08,10,12,28,24.30
2014,08,10,12,29,24.30
2014,08,10,12,30,24.40
2014,08,10,12,31,24.60
2014,08,10,12,32,24.60
2014,08,10,12,33,24.70
2014,08,10,12,34,24.70
2014,08,10,12,35,24.70
2014,08,10,12,36,24.70
2014,08,10,12,37,24.80
2014,08,10,12,38,24.80
2014,08,10,12,39,24.90
2014,08,10,12,40,24.90
2014,08,10,12,41,24.90
2014,08,10,12,42,24.90
2014,08,10,12,43,24.90
2014,08,10,12,44,24.90
2014,08,10,12,45,24.90
2014,08,10,12,46,24.80
2014,08,10,12,47,24.80
2014,08,10,12,48,24.90
2014,08,10,12,49,24.90
2014,08,10,12,50,25.00
2014,08,10,12,51,25.00
2014,08,10,12,52,25.00
2014,08,10,12,53,25.00
2014,08,10,12,54,25.00
2014,08,10,12,55,25.00
2014,08,10,12,56,25.10
2014,08,10,12,57,25.10
2014,08,10,12,58,25.10
2014,08,10,12,59,25.10
2014,08,10,13,00,25.20
2014,08,10,13,01,25.20
2014,08,10,13,02,25.20
2014,08,10,13,03,25.10
2014,08,10,13,04,25.10
2014,08,10,13,05,25.20
2014,08,10,13,06,25.30
2014,08,10,13,07,25.30
2014,08,10,13,08,25.30
2014,08,10,13,09,25.30
2014,08,10,13,10,25.40
2014,08,10,13,11,25.40
2014,08,10,13,12,25.40
2014,08,10,13,13,25.40
2014,08,10,13,14,25.30
2014,08,10,13,15,25.20
2014,08,10,13,16,25.20
2014,08,10,13,17,25.20
2014,08,10,13,18,25.20
2014,08,10,13,19,25.20
2014,08,10,13,20,25.20
2014,08,10,13,21,25.20
2014,08,10,13,22,25.20
2014,08,10,13,23,25.20
2014,08,10,13,24,25.30
2014,08,10,13,25,25.30
2014,08,10,13,26,25.30
2014,08,10,13,27,25.30
2014,08,10,13,28,25.30
2014,08,10,13,29,25.40
2014,08,10,13,30,25.50
2014,08,10,13,31,25.60
2014,08,10,13,32,25.50
2014,08,10,13,33,25.50
2014,08,10,13,34,25.40
2014,08,10,13,35,25.40
2014,08,10,13,36,25.50
2014,08,10,13,37,25.50
2014,08,10,13,38,25.40
2014,08,10,13,39,25.40
2014,08,10,13,40,25.40
2014,08,10,13,41,25.50
2014,08,10,13,42,25.50
2014,08,10,13,43,25.60
2014,08,10,13,44,25.60
2014,08,10,13,45,25.60
2014,08,10,13,46,25.60
2014,08,10,13,47,25.60
2014,08,10,13,48,25.60
2014,08,10,13,49,25.60
2014,08,10,13,50,25.70
2014,08,10,13,51,25.70
2014,08,10,13,52,25.70
2014,08,10,13,53,25.60
2014,08,10,13,54,25.60
2014,08,10,13,55,25.60
2014,08,10,13,56,25.50
2014,08,10,13,57,25.50
2014,08,10,13,58,25.60
2014,08,10,13,59,25.60
2014,08,10,14,00,25.50
2014,08,10,14,01,25.60
2014,08,10,14,02,25.60
2014,08,10,14,03,25.60
2014,08,10,14,04,25.60
2014,08,10,14,05,25.60
2014,08,10,14,06,25.70
2014,08,10,14,07,25.80
2014,08,10,14,08,25.90
2014,08,10,14,09,25.90
2014,08,10,14,10,26.00
2014,08,10,14,11,26.10
2014,08,10,14,12,26.20
2014,08,10,14,13,26.30
2014,08,10,14,14,26.40
2014,08,10,14,15,26.50
2014,08,10,14,16,26.50
2014,08,10,14,17,26.60
2014,08,10,14,18,26.70
2014,08,10,14,19,26.80
2014,08,10,14,20,26.90
2014,08,10,14,21,26.80
2014,08,10,14,22,26.80
2014,08,10,14,23,26.80
2014,08,10,14,24,26.70
2014,08,10,14,25,26.70
2014,08,10,14,26,26.70
2014,08,10,14,27,26.70
2014,08,10,14,28,26.70
2014,08,10,14,29,26.70
2014,08,10,14,30,26.70
2014,08,10,14,31,26.70
2014,08,10,14,32,26.70
2014,08,10,14,33,26.80
2014,08,10,14,34,26.80
2014,08,10,14,35,26.90
2014,08,10,14,36,26.90
2014,08,10,14,37,26.90
2014,08,10,14,38,26.90
2014,08,10,14,39,26.90
2014,08,10,14,40,26.80
2014,08,10,14,41,26.80
2014,08,10,14,42,26.90
2014,08,10,14,43,26.90
2014,08,10,14,44,26.90
2014,08,10,14,45,26.80
2014,08,10,14,46,26.80
2014,08,10,14,47,26.80
2014,08,10,14,48,26.90
2014,08,10,14,49,26.90
2014,08,10,14,50,27.00
2014,08,10,14,51,27.00
2014,08,10,14,52,27.10
2014,08,10,14,53,27.10
2014,08,10,14,54,27.10
2014,08,10,14,55,27.10
2014,08,10,14,56,27.10
2014,08,10,14,57,27.10
2014,08,10,14,58,27.20
2014,08,10,14,59,27.20
2014,08,10,15,00,27.20
2014,08,10,15,01,27.10
2014,08,10,15,02,27.10
2014,08,10,15,03,27.20
2014,08,10,15,04,27.20
2014,08,10,15,05,27.30
2014,08,10,15,06,27.40
2014,08,10,15,07,27.50
2014,08,10,15,08,27.70
2014,08,10,15,09,27.80
2014,08,10,15,10,27.80
2014,08,10,15,11,27.80
2014,08,10,15,12,27.80
2014,08,10,15,13,27.80
2014,08,10,15,14,27.80
2014,08,10,15,15,27.90
2014,08,10,15,16,27.90
2014,08,10,15,17,27.90
2014,08,10,15,18,28.00
2014,08,10,15,19,28.00
2014,08,10,15,20,28.10
2014,08,10,15,21,28.10
2014,08,10,15,22,28.10
2014,08,10,15,23,28.10
2014,08,10,15,24,28.10
2014,08,10,15,25,28.10
2014,08,10,15,26,28.20
2014,08,10,15,27,28.20
2014,08,10,15,28,28.20
2014,08,10,15,29,28.20
2014,08,10,15,30,28.10
2014,08,10,15,31,28.10
2014,08,10,15,32,28.10
2014,08,10,15,33,28.20
2014,08,10,15,34,28.20
2014,08,10,15,35,28.20
2014,08,10,15,36,28.20
2014,08,10,15,37,28.20
2014,08,10,15,38,28.40
2014,08,10,15,39,28.40
2014,08,10,15,40,28.50
2014,08,10,15,41,28.40
2014,08,10,15,42,28.30
2014,08,10,15,43,28.30
2014,08,10,15,44,28.20
2014,08,10,15,45,28.10
2014,08,10,15,46,28.10
2014,08,10,15,47,28.10
2014,08,10,15,48,28.20
2014,08,10,15,49,28.10
2014,08,10,15,50,28.10
2014,08,10,15,51,28.20
2014,08,10,15,52,28.20
2014,08,10,15,53,28.20
2014,08,10,15,54,28.10
2014,08,10,15,55,28.10
2014,08,10,15,56,28.10
2014,08,10,15,57,28.10
2014,08,10,15,58,28.10
2014,08,10,15,59,28.20
2014,08,10,16,00,28.20
2014,08,10,16,01,28.30
2014,08,10,16,02,28.30
2014,08,10,16,03,28.40
2014,08,10,16,04,28.50
2014,08,10,16,05,28.60
2014,08,10,16,06,28.60
2014,08,10,16,07,28.60
2014,08,10,16,08,28.70
2014,08,10,16,09,28.80
2014,08,10,16,10,28.90
2014,08,10,16,11,28.90
2014,08,10,16,12,28.90
2014,08,10,16,13,28.90
2014,08,10,16,14,28.80
2014,08,10,16,15,28.80
2014,08,10,16,16,28.80
2014,08,10,16,17,28.80
2014,08,10,16,18,28.70
2014,08,10,16,19,28.70
2014,08,10,16,20,28.80
2014,08,10,16,21,28.90
2014,08,10,16,22,28.90
2014,08,10,16,23,28.80
2014,08,10,16,24,28.70
2014,08,10,16,25,28.70
2014,08,10,16,26,28.80
2014,08,10,16,27,28.80
2014,08,10,16,28,28.80
2014,08,10,16,29,28.80
2014,08,10,16,30,28.80
2014,08,10,16,31,28.90
2014,08,10,16,32,28.90
2014,08,10,16,33,28.90
2014,08,10,16,34,28.90
2014,08,10,16,35,28.90
2014,08,10,16,36,29.00
2014,08,10,16,37,29.20
2014,08,10,16,38,29.20
2014,08,10,16,39,29.20
2014,08,10,16,40,29.20
2014,08,10,16,41,29.20
2014,08,10,16,42,29.20
2014,08,10,16,43,29.20
2014,08,10,16,44,29.30
2014,08,10,16,45,29.30
2014,08,10,16,46,29.30
2014,08,10,16,47,29.30
2014,08,10,16,48,29.30
2014,08,10,16,49,29.20
2014,08,10,16,50,29.10
2014,08,10,16,51,29.10
2014,08,10,16,52,29.10
2014,08,10,16,53,29.10
2014,08,10,16,54,29.10
2014,08,10,16,55,29.20
2014,08,10,16,56,29.10
2014,08,10,16,57,29.10
2014,08,10,16,58,29.00
2014,08,10,16,59,28.90
2014,08,10,17,00,28.90
2014,08,10,17,01,28.80
2014,08,10,17,02,28.80
2014,08,10,17,03,28.80
2014,08,10,17,04,28.80
2014,08,10,17,05,28.80
2014,08,10,17,06,28.80
2014,08,10,17,07,28.70
2014,08,10,17,08,28.80
2014,08,10,17,09,28.90
2014,08,10,17,10,28.90
2014,08,10,17,11,29.00
2014,08,10,17,12,29.00
2014,08,10,17,13,29.10
2014,08,10,17,14,29.10
2014,08,10,17,15,29.10
2014,08,10,17,16,29.00
2014,08,10,17,17,29.00
2014,08,10,17,18,28.90
2014,08,10,17,19,29.00